Orbital Elements at Epoch 2459200.5 (2020-Dec-17.0) TDB
Reference: JPL 30 (heliocentric ecliptic J2000)
Element | Value | Uncertainty (1-sigma) | Units |
e | .07907017667557101 | 2.3382e-08 | |
a | 2.170765188026535 | 5.7832e-09 | au |
q | 1.999122401088098 | 4.9457e-08 | au |
i | 4.671418874692269 | 2.6826e-06 | deg |
node | 98.14719104194624 | 4.3353e-05 | deg |
peri | 160.9704709909433 | 5.0613e-05 | deg |
M | 91.58174169327494 | 2.5549e-05 | deg |
tp | 2458903.316907828594 (2020-Feb-23.81690783) | 8.3146e-05 | TDB |
period | 1168.201337991832 3.20 | 4.6684e-06 1.278e-08 | d yr |
n | .3081660569049245 | 1.2315e-09 | deg/d |
Q | 2.342407974964972 | 6.2405e-09 | au |
|
| | Orbit Determination Parameters
Additional Information
|